Flag for Switzerland Weather past 2 weeks in Basel, Basel-Stadt, Switzerland

Now
50 °F

Drizzle. Overcast.


Feels Like: 48 °F
Forecast: 39 / 69 °F
Wind: 6 mph from West

Location: Bale-Mulhouse


UV Index: 3 (Moderate)

Visibility: 19 mi


Pressure: 29.67 "Hg

Humidity: 80%

Dew point: 44 °F

Location of BaselLocation

Historic Weather in Basel

°F

Basel temperature yesterday

Maximum temperature yesterday: 65 °F (at 4:00 PM)
Minimum temperature yesterday: 45 °F (at 2:00 AM)
Average temperature yesterday: 54 °F

Past Weeks' High & Low Weather Summary

 TemperatureHumidityPressure
High73 °F (Apr 7, 7:00 PM)98% (Apr 19, 6:00 AM)30.37 "Hg (Apr 19, 6:00 AM)
Low27 °F (Apr 16, 7:00 AM)24% (Apr 17, 6:00 PM)29.62 "Hg (Apr 20, 5:00 PM)
Average52 °F62%30.07 "Hg
* Reported Apr 6 7:00 AM — Apr 21 7:00 AM, Basel, Weather by CustomWeather, © 2014

Note: Actual official high and low records may vary slightly from our data, if they occured in-between our weather recording intervals... More about our weather records

Advertising

Historic Weather Conditions — Data for Previous 24 hours

 ConditionsComfort  
Time TempWeatherWind HumidityBarometerVisibility
7:00 AM
Apr 21
50 °FDrizzle. Overcast.6 mph80%29.67 "Hg19 mi
6:00 AM51 °FSprinkles. Overcast.8 mph78%29.67 "Hg19 mi
5:00 AM51 °FOvercast.9 mph73%29.66 "Hg19 mi
4:00 AM52 °FOvercast.8 mph68%29.66 "Hg37 mi
3:00 AM53 °FPassing clouds.10 mph64%29.65 "Hg37 mi
2:00 AM54 °FOvercast.9 mph62%29.67 "Hg37 mi
1:00 AM50 °FOvercast.2 mph82%29.67 "Hg7 mi
12:00 AM51 °FOvercast.1 mph78%29.67 "Hg12 mi
11:00 PM
Apr 20
50 °FOvercast.2 mph75%29.67 "Hg12 mi
10:00 PM54 °FOvercast.3 mph68%29.67 "Hg12 mi
9:00 PM56 °FOvercast.3 mph64%29.65 "Hg16 mi
8:00 PM59 °FOvercast.6 mph59%29.63 "Hg16 mi
7:00 PM64 °FOvercast.5 mph50%29.62 "Hg16 mi
6:00 PM63 °FOvercast.5 mph48%29.62 "Hg16 mi
5:00 PM64 °FOvercast.6 mph46%29.62 "Hg31 mi
4:00 PM65 °FOvercast.3 mph42%29.63 "Hg31 mi
3:00 PM64 °FPartly sunny.3 mph42%29.65 "Hg28 mi
2:00 PM62 °FPartly sunny.3 mph46%29.66 "Hg22 mi
1:00 PM59 °FPartly sunny.3 mph50%29.68 "Hg31 mi
12:00 PM57 °FPartly sunny.5 mph57%29.70 "Hg17 mi
11:00 AM55 °FCool.6 mph61%29.72 "Hg14 mi
10:00 AM53 °FPartly sunny.5 mph69%29.73 "Hg8 mi
9:00 AM49 °FOvercast.1 mph80%29.74 "Hg6 mi
8:00 AM47 °FOvercast.3 mph84%29.74 "Hg5 mi
Weather by CustomWeather, © 2014

See weather overview